Location: Aalen
(48.8330°N, 10.1000°E)
Time: 07:07:47
(UTC+01:00)

BlueWalker 3 - Pass Details

Date: 08 December 2022
Orbit: 499 x 517 km, 53.2° (Epoch: 28 January)

Event Time Altitude Azimuth Distance (km) Brightness Sun altitude
Rises 20:01:14 0° 288° (WNW) 2,623 6.6 -34.8°
Reaches altitude 10° 20:04:08 10° 265° (W) 1,727 5.4 -35.3°
Enters shadow 20:04:27 11° 262° (W) 1,653 5.3 -35.3°
